Tracking 30995 objects as of 5-Jul-2025
HD Live streaming from Space Station
objects crossing your sky now

SL-16 DEB

Track SL-16 DEB now!
10-day predictions


NORAD ID: 22574
Int'l Code: 1992-093HW
Perigee: 759.8 km
Apogee: 946.3 km
Inclination: 71.1 °
Period: 101.8 minutes
Semi major axis: 7224 km
RCS: 0.0082 m2 (small)
Launch date: December 25, 1992
Source: Commonwealth of Independent States (former USSR) (CIS)
Launch site: TYURATAM MISSILE AND SPACE COMPLEX (TTMTR)

Note: This is SATELLITE DEBRIS
Your satellite tracking list
Your tracking list is empty




NASA's NSSDC Master Catalog

Two Line Element Set (TLE):
1 22574U 92093HW  25186.55956563  .00001217  00000-0  61474-3 0  9995
2 22574  71.0844 221.1838 0129045 304.8572 211.0203 14.13945897652970
Source of the keplerian elements: AFSPC